Regional Weather Roundup
Issued by NWS

Home | Current Version | Previous Version | Graphics & Text | Print | Product List | Glossary On
Versions: 1 2 3 4 5 6 7 8 9 10 11 12 13 14 15 16 17 18 19 20 21 22 23 24 25 26 27 28 29 30 31 32 33 34 35 36 37 38 39 40 41 42 43 44 45 46 47 48 49 50
000
ASUS45 KCYS 050210
RWRWY

WYOMING REGIONAL WEATHER ROUNDUP
NATIONAL WEATHER SERVICE CHEYENNE WY
800 PM MDT TUE AUG 04 2015

NOTE:  "FAIR" INDICATES FEW OR NO CLOUDS BELOW 12,000 FEET
WITH NO SIGNIFICANT WEATHER AND/OR OBSTRUCTIONS TO VISIBILITY.

WYZ001-050300-
YELLOWSTONE NATIONAL PARK

CITY           SKY/WX    TMP DP  RH WIND       PRES   REMARKS
LK YELLOWSTONE   N/A     51  48  89 CALM      30.31F
W YELLOWSTONE  NOT AVBL

$$
WYZ002>013-054>058-071-098>099-050300-
NORTHERN WYOMING

CITY           SKY/WX    TMP DP  RH WIND       PRES   REMARKS
JACKSON        PTCLDY    57  54  88 SW3       30.20R
CODY           MOCLDY    64  46  52 N13G22    30.11R
GREYBULL       FAIR      78  49  35 N13       29.99R
WORLAND        FAIR      77  52  41 NE6       30.01R
SHERIDAN       FAIR      71  55  56 NW5       30.01R
BUFFALO        MOCLDY    69  55  60 N5        30.09R
GILLETTE       CLOUDY    68  55  63 SE6       30.04R
HULETT         LGT RAIN  63  57  82 SW12      30.08S
NEWCASTLE      LGT RAIN  63  54  72 N14       30.04F

$$
WYZ014>020-022>026-101>103-050300-
CENTRAL WYOMING

CITY           SKY/WX    TMP DP  RH WIND       PRES   REMARKS
BIG PINEY      FAIR      67  47  48 NW6       30.24R
PINEDALE       FAIR      68  37  32 W6        30.25R
DUBOIS         FAIR      63  36  36 NW20G31   30.24R
LANDER         FAIR      75  44  33 W5        30.06R
RIVERTON       MOCLDY    77  46  33 NE7       30.07R
CASPER         FAIR      74  53  48 NE7       30.08R
DOUGLAS        FAIR      73  56  54 CALM      30.07R

$$
WYZ021-027>030-104>119-050300-
SOUTHERN WYOMING

CITY           SKY/WX    TMP DP  RH WIND       PRES   REMARKS
EVANSTON       FAIR      75  34  22 W9        30.24R
KEMMERER       FAIR      72  32  23 W7        30.25S
FORT BRIDGER   CLEAR     77  37  24 W8        30.26S
ROCK SPRINGS   FAIR      75  39  27 NW10      30.20R
DIXON          FAIR      73  37  26 W5        30.22R
RAWLINS        FAIR      75  38  26 W12       30.19R
SARATOGA       FAIR      70  41  35 W9        30.23R
LARAMIE        MOCLDY    70  42  36 W12       30.21R
CHEYENNE       MOCLDY    68  54  60 MISG      30.17R
TORRINGTON     FAIR      71  60  68 E5        30.02R
PINE BLUFFS    FAIR      70  54  56 CALM      30.10R

$$



USA.gov is the U.S. government's official web portal to all federal, state and local government web resources and services.